Estación de Rauco

Ultimos registro cada 15 minutos 72
Estación Fecha / Hora Temperatura Humedad Lluvia Velocidad Dirección Radiación Presion
72 Rauco 05-05-2026 17:45 17 69 0 0,9 236 0 1013,5
71 Rauco 05-05-2026 17:30 17,3 68 0 0,9 235 11 1013,4
70 Rauco 05-05-2026 17:15 17,6 68 0 0 270 19 1013,4
69 Rauco 05-05-2026 17:00 17,8 64 0 0,4 44 28 1013,1
68 Rauco 05-05-2026 16:45 18,1 66 0 0,9 44 32 1013,3
67 Rauco 05-05-2026 16:30 18,4 65 0 0 76 51 1013,2
66 Rauco 05-05-2026 16:15 18,6 66 0 0 76 69 1013
65 Rauco 05-05-2026 16:00 18,6 69 0 0,4 76 76 1012,9
64 Rauco 05-05-2026 15:45 18,7 66 0 0 76 90 1012,5
63 Rauco 05-05-2026 15:30 18,8 65 0 0,4 76 90 1012,6
62 Rauco 05-05-2026 15:15 18,7 66 0 0 76 125 1012,6
61 Rauco 05-05-2026 15:00 18,7 65 0 0,9 76 127 1012,7
60 Rauco 05-05-2026 14:45 18,7 65 0 0,9 76 134 1012,4
59 Rauco 05-05-2026 14:30 18,7 64 0 0 158 142 1012,4
58 Rauco 05-05-2026 14:15 18,7 64 0 0 228 155 1012,4
57 Rauco 05-05-2026 14:00 18,4 62 0 0 228 141 1012,6
56 Rauco 05-05-2026 13:45 18,3 66 0 0 228 118 1012,5
55 Rauco 05-05-2026 13:30 17,9 65 0 0 228 134 1012,5
54 Rauco 05-05-2026 13:15 17,6 69 0 0 228 163 1012,7
53 Rauco 05-05-2026 13:00 17,3 70 0 0 228 162 1012,4
52 Rauco 05-05-2026 12:45 17,2 69 0 0 247 148 1012,7
51 Rauco 05-05-2026 12:30 17,1 71 0 0 247 135 1012,8
50 Rauco 05-05-2026 12:15 17 69 0 0 247 137 1012,8
49 Rauco 05-05-2026 12:00 17 71 0 0,4 247 158 1012,7
48 Rauco 05-05-2026 11:45 16,8 72 0 0 246 200 1013
47 Rauco 05-05-2026 11:30 16,5 72 0 0 246 199 1013
46 Rauco 05-05-2026 11:15 16 76 0 0,4 246 227 1013,2
45 Rauco 05-05-2026 11:00 15,6 74 0 0 242 204 1013,5
44 Rauco 05-05-2026 10:45 15,3 77 0 0 242 214 1013,6
43 Rauco 05-05-2026 10:30 14,7 78 0 0 242 181 1013,6
42 Rauco 05-05-2026 10:15 14,3 79 0 0 242 149 1013,5
41 Rauco 05-05-2026 10:00 13,8 82 0 0 242 178 1013,8
40 Rauco 05-05-2026 09:45 13 84 0 0 242 148 1013,7
39 Rauco 05-05-2026 09:30 12,3 85 0 0 175 137 1013,8
38 Rauco 05-05-2026 09:15 11,7 88 0 0 175 107 1013,7
37 Rauco 05-05-2026 09:00 11,2 88 0 0 175 93 1013,3
36 Rauco 05-05-2026 08:45 10,9 90 0 0 175 51 1013,3
35 Rauco 05-05-2026 08:30 10,6 90 0 0 175 49 1012,9
34 Rauco 05-05-2026 08:15 10,4 90 0 0 175 30 1012,8
33 Rauco 05-05-2026 08:00 10,3 90 0 0 175 21 1013,6
32 Rauco 05-05-2026 07:45 10,2 89 0 0 175 7 1013,5
31 Rauco 05-05-2026 07:30 10,2 90 0 0 175 0 1013,7
30 Rauco 05-05-2026 07:15 10,2 90 0 0 175 0 1013,9
29 Rauco 05-05-2026 07:00 10,1 91 0 0 175 0 1014
28 Rauco 05-05-2026 06:45 9,9 91 0 0 175 0 1014,6
27 Rauco 05-05-2026 06:30 9,9 91 0 0 175 0 1015,6
26 Rauco 05-05-2026 06:15 9,8 92 0 0 175 0 1015,3
25 Rauco 05-05-2026 06:00 9,6 92 0 0 175 0 1015,4
24 Rauco 05-05-2026 05:45 9,4 92 0 0 175 0 1015,4
23 Rauco 05-05-2026 05:30 9,2 92 0 0 175 0 1015,2
22 Rauco 05-05-2026 05:15 8,9 92 0 0 175 0 1015,2
21 Rauco 05-05-2026 05:00 9 91 0 0 175 0 1015,3
20 Rauco 05-05-2026 04:45 9,1 92 0 0 175 0 1015,5
19 Rauco 05-05-2026 04:30 9,1 92 0 0 175 0 1014,9
18 Rauco 05-05-2026 04:15 8,9 92 0 0 175 0 1015,1
17 Rauco 05-05-2026 04:00 8,7 92 0 0 175 0 1014,4
16 Rauco 05-05-2026 03:45 8,7 92 0 0 175 0 1014,1
15 Rauco 05-05-2026 03:30 8,6 92 0 0 175 0 1014,4
14 Rauco 05-05-2026 03:15 8,4 92 0 0 175 0 1014,8
13 Rauco 05-05-2026 03:00 8,4 91 0 0 175 0 1014,7
12 Rauco 05-05-2026 02:45 8,6 91 0 0 175 0 1014,8
11 Rauco 05-05-2026 02:30 8,7 91 0 0 175 0 1015
10 Rauco 05-05-2026 02:15 8,8 92 0 0 175 0 1015,3
9 Rauco 05-05-2026 02:00 8,4 92 0 0 175 0 1015,3
8 Rauco 05-05-2026 01:45 8,4 92 0 0 175 0 1015,4
7 Rauco 05-05-2026 01:30 8,2 92 0 0 175 0 1015,4
6 Rauco 05-05-2026 01:15 7,9 91 0 0 175 0 1015,3
5 Rauco 05-05-2026 01:00 7,8 91 0 0 175 0 1015,5
4 Rauco 05-05-2026 00:45 7,8 88 0 0 175 0 1015,6
3 Rauco 05-05-2026 00:30 8,3 89 0 0 175 0 1015,7
2 Rauco 05-05-2026 00:15 8,6 90 0 0 175 0 1015,6
1 Rauco 05-05-2026 00:00 8,7 90 0 0 175 0 1015,6